Weather History for KALN - December, 2013

Change the Weather History Date:

Saturday, December 14, 2013

  Actual Average Record
Temperature  
Mean Temperature 30 °F -  
Max Temperature 33 °F 40 °F 62 °F (2006)
Min Temperature 26 °F 26 °F 3 °F (2010)
Degree Days  
Heating Degree Days 36    
Moisture  
Dew Point 30 °F    
Average Humidity 96    
Maximum Humidity 100    
Minimum Humidity 86    
Precipitation  
Precipitation 0.21 in - - ()
Sea Level Pressure  
Sea Level Pressure 29.97 in    
Wind  
Wind Speed 7 mph (NNW)    
Max Wind Speed 18 mph    
Max Gust Speed 24 mph    
Visibility 4 miles    
Events Snow    
Averages and records for this station are not official NWS values.
T = Trace of Precipitation, MM = Missing Value Source: NWS Daily Summary

Daily Weather History Graph

Daily Weather History Graph

Search for Another Location

Airport or City:

Trip Planner

Search our weather history database for the weather conditions in past years. The results will help you decide how hot, cold, wet, or windy it might be!

Date:

Astronomy

Dec. 14, 2013 Rise Set
Actual Time 7:11 AM CST 4:38 PM CST
Civil Twilight 6:41 AM CST 5:08 PM CST
Nautical Twilight 6:07 AM CST 5:42 PM CST
Astronomical Twilight 5:35 AM CST 6:14 PM CST
Moon 2:59 PM CST (12/14) 4:32 AM CST (12/14)
Length of Visible Light 10h 27m
Length of Day
9h 27m
Waxing Gibbous, 94% of the Moon is Illuminated
Dec 14
Waxing Gibbous
Dec 17
Full
Dec 25
Last Quarter
Jan 1
New
Jan 7
First Quarter

Hourly Weather History & Observations

Time (CST) Temp. Windchill Dew Point Humidity Pressure Visibility Wind Dir Wind Speed Gust Speed Precip Events Conditions
12:15 AM 32.5 °F 27.1 °F 32.5 °F 100% 29.96 in 2.0 mi East 5.8 mph - N/A Snow Light Snow
12:35 AM 32.5 °F 27.1 °F 32.5 °F 100% 29.95 in 2.5 mi East 5.8 mph - N/A Snow Light Snow
12:55 AM 32.5 °F 26.2 °F 32.5 °F 100% 29.94 in 2.5 mi East 6.9 mph - 0.01 in Snow Light Snow
1:15 AM 32.5 °F 27.1 °F 32.5 °F 100% 29.93 in 2.0 mi East 5.8 mph - N/A Snow Light Snow
1:35 AM 32.7 °F 27.3 °F 32.7 °F 100% 29.92 in 2.0 mi East 5.8 mph - N/A Snow Light Snow
1:55 AM 32.5 °F 27.1 °F 32.5 °F 100% 29.93 in 2.0 mi ESE 5.8 mph - N/A Snow Light Snow
2:15 AM 32.5 °F 27.1 °F 32.5 °F 100% 29.91 in 1.8 mi East 5.8 mph - N/A Snow Light Snow
2:35 AM 32.5 °F 28.1 °F 32.5 °F 100% 29.91 in 2.5 mi ESE 4.6 mph - 0.01 in Snow Light Snow
2:55 AM 32.5 °F 28.1 °F 32.5 °F 100% 29.91 in 1.5 mi East 4.6 mph - 0.02 in Snow Light Snow
3:15 AM 32.5 °F 28.1 °F 32.5 °F 100% 29.89 in 1.5 mi East 4.6 mph - 0.01 in Snow Light Snow
3:35 AM 32.5 °F 28.1 °F 32.5 °F 100% 29.88 in 1.8 mi East 4.6 mph - 0.02 in Snow Light Snow
3:55 AM 32.5 °F 28.1 °F 32.5 °F 100% 29.87 in 1.5 mi East 4.6 mph - 0.03 in Snow Light Snow
4:15 AM 32.5 °F 29.3 °F 32.5 °F 100% 29.86 in 1.5 mi East 3.5 mph - 0.02 in Snow Light Snow
4:35 AM 32.5 °F 29.3 °F 32.5 °F 100% 29.86 in 1.5 mi East 3.5 mph - 0.04 in Snow Light Snow
4:55 AM 32.5 °F - 32.5 °F 100% 29.86 in 1.5 mi Calm Calm - 0.06 in Snow Light Snow
5:15 AM 32.4 °F - 32.4 °F 100% 29.85 in 1.0 mi Calm Calm - 0.02 in Snow Snow
5:35 AM 32.4 °F - 32.4 °F 100% 29.85 in 1.0 mi Calm Calm - 0.07 in Snow Snow
5:55 AM 32.5 °F - 32.5 °F 100% 29.86 in 2.0 mi Calm Calm - 0.09 in Snow Light Snow
6:45 AM 32.0 °F - 32.0 °F 100% 29.86 in 1.0 mi Calm Calm - N/A Snow Light Snow
7:45 AM 32.0 °F - 32.0 °F 100% 29.86 in 0.8 mi Calm Calm - N/A Snow Light Snow
8:45 AM 32.0 °F - 32.0 °F 100% 29.86 in 1.5 mi Calm Calm - N/A Snow Light Snow
9:55 AM 32.0 °F 26.4 °F 32.0 °F 100% 29.89 in 7.0 mi NW 5.8 mph - N/A   Overcast
10:55 AM 33.8 °F 25.3 °F 33.8 °F 100% 29.91 in 10.0 mi WNW 11.5 mph - N/A   Overcast
11:45 AM 33.8 °F 25.3 °F 33.8 °F 100% 29.89 in 10.0 mi NW 11.5 mph - N/A   Overcast
12:50 PM 33.8 °F 25.3 °F 32.0 °F 93% 29.89 in 10.0 mi NW 11.5 mph 19.6 mph N/A   Overcast
1:50 PM 33.8 °F 24.3 °F 32.0 °F 93% 29.90 in 7.0 mi NW 13.8 mph 24.2 mph N/A   Overcast
2:50 PM 33.8 °F 25.3 °F 32.0 °F 93% 29.90 in 7.0 mi NW 11.5 mph 18.4 mph N/A   Overcast
3:50 PM 32.0 °F 23.0 °F 32.0 °F 100% 29.95 in 7.0 mi NW 11.5 mph 18.4 mph N/A   Overcast
4:50 PM - - - N/A% 30.01 in 7.0 mi WNW 11.5 mph 17.3 mph N/A   Overcast
5:50 PM 30.2 °F 19.8 °F 26.6 °F 86% 30.05 in 4.0 mi WNW 13.8 mph - N/A   Overcast
6:50 PM 30.2 °F 18.9 °F 26.6 °F 86% 30.07 in 6.0 mi NW 16.1 mph - N/A   Overcast
7:50 PM 30.2 °F 18.1 °F 26.6 °F 86% 30.10 in 6.0 mi NW 18.4 mph - N/A   Overcast
8:50 PM 28.4 °F 15.8 °F 24.8 °F 86% 30.12 in 6.0 mi NW 18.4 mph - N/A   Overcast
9:15 PM 27.5 °F 16.3 °F 25.2 °F 91% 30.13 in 7.0 mi WNW 13.8 mph 20.7 mph N/A   Overcast
9:35 PM 27.1 °F 14.9 °F 24.8 °F 91% 30.13 in 7.0 mi WNW 16.1 mph - N/A   Overcast
9:50 PM 26.6 °F 15.2 °F 24.8 °F 93% 30.13 in 6.0 mi WNW 13.8 mph - N/A   Overcast
9:55 PM 27.0 °F 18.7 °F 24.6 °F 91% 30.13 in 7.0 mi WNW 8.1 mph - N/A   Overcast
10:15 PM 26.8 °F 16.5 °F 24.4 °F 91% 30.13 in 5.0 mi WNW 11.5 mph 17.3 mph N/A   Overcast
10:35 PM 26.6 °F 14.7 °F 24.6 °F 92% 30.13 in 5.0 mi WNW 15.0 mph - N/A   Overcast
10:55 PM 26.8 °F 15.9 °F 24.8 °F 92% 30.13 in 5.0 mi WNW 12.7 mph - N/A   Overcast
11:15 PM 26.8 °F 17.7 °F 24.8 °F 92% 30.13 in 5.0 mi WNW 9.2 mph - N/A   Overcast
11:35 PM 26.6 °F 14.7 °F 24.8 °F 93% 30.14 in 5.0 mi WNW 15.0 mph 18.4 mph N/A   Overcast
11:55 PM 26.6 °F 13.8 °F 24.1 °F 90% 30.14 in 7.0 mi WNW 17.3 mph - N/A   Overcast